HELSINKI-MALMI current weather conditions

sailwx.info

Wind from 110 at 9 knots

Air temperature 2.0° C
Visibility: greater than 3.2 NM
Dewpoint 2.0° C
Present weather: Light rain.

Last reported at 2016-Feb-11 19:20 UTC.
Time now 2016-Feb-11 21:11 UTC

Location: N 60°15' E 025°03'.
View on Google Maps.

See reports from other nearby stations

  
Tides and Currents Weather Stations Pressure Air Temp Water Temp Dewpoint Dewpoint Depression Visibility Wind Speed Wind Dir Waves Ship Positions
date/time (UTC)wind fromknots sea level pressurealtimeterstation pressurevisibilityair tempwater tempwave heightnotes
2016-Feb-11 20:20 120 9 5.4 2.0 Light rain.
2016-Feb-11 19:50 120 9 4.3 2.0 Light rain.
2016-Feb-11 19:20 110 9 3.2 2.0 Light rain.
2016-Feb-11 18:50 110 9 2.7 2.0 Drizzle.
2016-Feb-11 18:20 110 7 3.2 2.0 Light drizzle.
2016-Feb-11 17:50 120 7 5.4 3.0
2016-Feb-11 17:20 120 7 5.4 2.0 Light drizzle.
2016-Feb-11 16:50 120 6 3.8 3.0 Light rain showers.
2016-Feb-11 15:50 120 6 3.8 3.0 Drizzle.
2016-Feb-11 15:20 120 7 3.8 3.0 Drizzle.
2016-Feb-11 14:50 120 7 3.2 3.0 Light drizzle.
2016-Feb-11 14:20 130 7 3.2 3.0
2016-Feb-11 13:50 130 7 5.4 3.0
2016-Feb-11 13:20 130 7 5.4 3.0
2016-Feb-11 12:50 130 7 5.4 3.0
2016-Feb-11 12:20 120 6 5.4 3.0
2016-Feb-11 11:50 130 6 5.4 3.0 Light rain.
2016-Feb-11 11:20 130 7 5.4 2.0 Light rain.
2016-Feb-11 10:50 120 7 5.4 2.0 Light rain.
2016-Feb-11 10:20 130 7 5.4 2.0 Light rain.
2016-Feb-11 09:50 130 6 4.3 2.0 Light rain.
2016-Feb-11 09:20 140 8 2.7 2.0 Light rain.
2016-Feb-11 08:50 130 7 3.8 2.0 Light rain.
2016-Feb-11 08:20 130 8 4.3 2.0 Light rain.
2016-Feb-11 07:50 140 10 3.8 2.0 Light rain.
2016-Feb-11 07:20 130 10 3.8 2.0 Light rain.
2016-Feb-11 06:50 130 9 3.8 3.0 Light rain.
2016-Feb-11 06:20 130 8 3.8 3.0 Light rain.
2016-Feb-11 05:50 130 8 3.8 3.0 Light rain.
2016-Feb-11 05:20 140 8 4.9 3.0 Light rain.
2016-Feb-11 04:50 140 9 4.9 3.0 Drizzle.
2016-Feb-11 04:20 140 8 3.8 3.0 Light rain.
2016-Feb-11 03:50 130 8 3.2 3.0 Heavy drizzle.
2016-Feb-11 03:20 130 6 3.8 3.0 Drizzle.
2016-Feb-11 02:50 130 7 5.4 3.0 Drizzle.
2016-Feb-11 02:20 130 6 3.2 3.0 Light rain.
2016-Feb-11 01:50 130 6 4.9 3.0 Drizzle.
2016-Feb-11 01:20 140 5 5.4 3.0 Light rain showers.
2016-Feb-11 00:50 150 5 5.4 4.0 Light rain showers.
2016-Feb-11 00:20 140 5 5.4 4.0 Light rain showers.
2016-Feb-10 23:50 150 5 5.4 4.0
2016-Feb-10 23:20 150 6 5.4 4.0
2016-Feb-10 22:50 150 7 2.7 4.0
2016-Feb-10 22:20 150 5 3.8 4.0
2016-Feb-10 21:50 160 6 3.2 4.0 Light rain showers.
2016-Feb-10 21:20 160 9 2.2 4.0 Light rain showers.
2016-Feb-10 20:50 140 10 1.6 4.0 Light rain showers. Mist.
2016-Feb-10 20:20 140 11 5.4 4.0
2016-Feb-10 19:50 140 12 5.4 5.0
2016-Feb-10 19:20 130 10 5.4 4.0
2016-Feb-10 18:50 140 8 4.3 4.0 Light rain.
2016-Feb-10 18:20 140 10 5.4 4.0 Light rain.
2016-Feb-10 17:50 140 9 5.4 4.0 Light rain.
2016-Feb-10 17:20 130 10 5.4 4.0 Light rain.
2016-Feb-10 16:50 130 9 5.4 4.0 Light rain.
2016-Feb-10 16:20 140 8 5.4 4.0 Light rain.
2016-Feb-10 15:50 130 7 5.4 4.0 Light rain.
2016-Feb-10 15:20 130 7 4.3 4.0 Light rain.
2016-Feb-10 14:50 110 7 4.3 3.0 Light rain.
2016-Feb-10 14:20 110 8 3.2 3.0 Light rain.
2016-Feb-10 13:50 110 8 4.3 3.0 Light rain.
2016-Feb-10 13:20 110 8 3.8 3.0 Light rain.
2016-Feb-10 12:50 100 11 3.8 3.0 Light rain.
2016-Feb-10 12:20 110 10 4.3 3.0 Light rain.
2016-Feb-10 11:50 110 11 4.3 3.0 Light rain.
2016-Feb-10 11:20 100 11 3.2 3.0 Light rain.
2016-Feb-10 10:50 100 14 gusting 27 3.8 2.0 Light rain.
2016-Feb-10 10:20 100 13 3.8 2.0 Light rain.
2016-Feb-10 09:50 080 9 5.4 3.0 Light rain.
2016-Feb-10 09:20 090 7 3.8 3.0 Light rain.
2016-Feb-10 08:50 100 10 5.4 3.0
2016-Feb-10 08:20 090 8 5.4 3.0
2016-Feb-10 07:50 110 8 5.4 3.0
2016-Feb-10 07:20 120 7 5.4 3.0
2016-Feb-10 06:50 130 6 5.4 3.0
2016-Feb-10 06:20 150 6 5.4 3.0
2016-Feb-10 05:50 150 7 5.4 3.0
2016-Feb-10 05:20 160 8 5.4 3.0
2016-Feb-10 04:50 160 8 5.4 3.0
2016-Feb-10 04:20 160 6 5.4 3.0
2016-Feb-10 03:50 170 8 5.4 3.0
2016-Feb-10 03:20 180 10 5.4 3.0
2016-Feb-10 02:50 180 9 5.4 3.0
2016-Feb-10 02:20 180 9 5.4 3.0
2016-Feb-10 01:50 180 11 5.4 3.0
2016-Feb-10 01:20 180 11 5.4 3.0
2016-Feb-10 00:50 180 12 gusting 24 5.4 3.0
2016-Feb-10 00:20 180 11 5.4 3.0 Light rain.
2016-Feb-09 23:50 180 10 5.4 3.0 Light precipitation.
2016-Feb-09 23:20 200 8 5.4 3.0
2016-Feb-09 22:50 200 10 5.4 3.0
2016-Feb-09 22:20 190 12 5.4 4.0
2016-Feb-09 21:50 190 11 5.4 4.0
2016-Feb-09 21:20 190 12 5.4 4.0